Showing default

SEDNA-2, 63153

Orbit data source: Space-Track

SEDNA-2, 63153 is a payload satellite owned by AAC ClydeSpace (US) in SSO that was launched on Tue, 14 Jan 2025 UTC via an FALCON 9 launch vehicle from the Air Force Western Test Range (AFWTR). Payload-class satellites include a variety of spacecraft equipped with specific instruments for various scientific and technological missions. These include communications satellites like Starlink; space stations such as the ISS; scientific satellites like the Hubble; Earth observation satellites from companies like Planet Labs, Umbra, and HawkEye 360; GPS; miniature CubeSats for education and research; and military/defense satellites.

Loading next visibility...
Identifier
63153, 2025-009DQ
Orbit
SSO
Country
Flag of USUS
Related business
Manufacturer
AAC ClydeSpace
Mission
Operational Commercial Communications
Bus & Motor
CUBESAT 1X4U, Unknown motor
Mass
~10 kg wet, ~10 kg dry
Launch date (UTC)
2025-01-14 (1 year ago)
Launch vehicle
FALCON 9
Launch site
Air Force Western Test Range (AFWTR)
Object type
Payload
Rocket body
Debris
Shape & HBR
Box, 0.4 m
Radar Cross Section
0.045 m², Medium (>0.1 m² and < 1m²)

Expand to show TLE details & history
Last TLE update: 3 hours ago

TLE from 3 hours ago
0 SEDNA-2
1 63153U 25009DQ  26128.20260207  .00005472  00000-0  32764-3 0  9995
2 63153  97.4548 202.7267 0009124 190.6136 169.4903 15.11382332 72083
Epoch: 2026-05-08T04:51Z
TLE epoch observation values (Epoch: 2026-05-08T04:51:44.818Z)
Latitude
-0.00006°
Longitude
-96.2478°
Altitude
541.261 km
Speed
7.588 km/s
True Right ascension
13h 30m 54s
True Declination
0° 00' 00"
Sunlit
Object was in full shadow at epoch
Visualization orbit readout
Latitude
Unknown
Longitude
Unknown
Altitude
Unknown
Speed
Unknown
Apparent Right ascension
Unknown
Apparent Declination
Unknown
Sunlit
N/A
Visualization observer readout
Local Sidereal Time
16:07:43
Azimuth
Unknown
Elevation
Unknown
Doppler factor
Unknown
Orbital elements
Apogee altitude
535.265 km
Perigee altitude
522.661 km
Semi-major axis
6,907.1 km
Eccentricity
0.00091
Inclination
97.4548°
RAAN
202.7267°
Arg. of periapsis
190.6136°
True anomaly
169.50935°
Mean anomaly
169.4903°
Eccentric anomaly
169.49983°
Mean motion
3.78094 °/min
Orbital period
95.21 mins
BSTAR
0.00032764
Loading maneuver chart data...
Computing Atmospheric mass density...
Loading historical data...
Loading historical data...
Loading historical data...
Loading historical data...
Loading historical data...
Loading historical data...
Loading historical data...

Documentation

Showing up to 5 results
|